Weather History for Christchurch, New Zealand

Change the Weather History Date:

Monday, February 17, 2014

  Actual Average Record
Temperature  
Mean Temperature 71 °F -  
Max Temperature 82 °F 70 °F 91 °F (1998)
Min Temperature 60 °F 52 °F 39 °F (2009)
Cooling Degree Days 6    
Growing Degree Days 21 (Base 50)    
Moisture  
Dew Point 53 °F    
Average Humidity 60    
Maximum Humidity 94    
Minimum Humidity 26    
Precipitation  
Precipitation 0.00 in - - ()
Sea Level Pressure  
Sea Level Pressure 29.91 in    
Wind  
Wind Speed 11 mph ()    
Max Wind Speed 17 mph    
Max Gust Speed 23 mph    
Visibility 6.2 miles    
Events Rain    
Averages and records for this station are not official NWS values.
T = Trace of Precipitation, MM = Missing Value Source: Averaged Metar Reports

Daily Weather History Graph

Daily Weather History Graph

Search for Another Location

Airport:

Trip Planner

Search our weather history database for the weather conditions in past years. The results will help you decide how hot, cold, wet, or windy it might be!

Date:

Astronomy

Feb. 17, 2014 Rise Set
Actual Time 6:51 AM NZDT 8:35 PM NZDT
Civil Twilight 6:21 AM NZDT 9:05 PM NZDT
Nautical Twilight 5:44 AM NZDT 9:42 PM NZDT
Astronomical Twilight 5:04 AM NZDT 10:21 PM NZDT
Moon 9:14 PM NZDT (2/17) 8:48 AM NZDT (2/17)
Length of Visible Light 14h 43m
Length of Day
13h 43m
Waning Gibbous, 96% of the Moon is Illuminated
Feb 17
Waning Gibbous
Feb 23
Last Quarter
Mar 1
New
Mar 9
First Quarter
Mar 17
Full

Hourly Weather History & Observations

Time (NZDT) Temp. Dew Point Humidity Pressure Visibility Wind Dir Wind Speed Gust Speed Precip Events Conditions
12:00 AM 62.6 °F 59.0 °F 88% 30.04 in 6.2 mi ENE 16.1 mph - N/A   Overcast
12:30 AM 62.6 °F 59.0 °F 88% 30.04 in 6.2 mi ENE 13.8 mph - N/A   Overcast
1:00 AM 62.6 °F 59.0 °F 88% 30.04 in 6.2 mi ENE 15.0 mph - N/A   Overcast
1:30 AM 62.6 °F 59.0 °F 88% 30.04 in 6.2 mi ENE 13.8 mph - N/A   Overcast
2:00 AM 62.6 °F 60.8 °F 94% 30.01 in 6.2 mi ENE 12.7 mph - N/A   Overcast
2:30 AM 62.6 °F 59.0 °F 88% 30.01 in 6.2 mi ENE 13.8 mph - N/A   Overcast
3:00 AM 62.6 °F 59.0 °F 88% 30.01 in 6.2 mi ENE 11.5 mph - N/A   Overcast
3:30 AM 62.6 °F 59.0 °F 88% 30.01 in 6.2 mi ENE 10.4 mph - N/A   Overcast
4:00 AM 62.6 °F 59.0 °F 88% 29.98 in 6.2 mi ENE 12.7 mph - N/A   Mostly Cloudy
4:30 AM 62.6 °F 59.0 °F 88% 29.98 in 6.2 mi ENE 13.8 mph - N/A   Overcast
5:00 AM 62.6 °F 59.0 °F 88% 29.98 in 6.2 mi ENE 12.7 mph - N/A   Overcast
5:30 AM 60.8 °F 59.0 °F 94% 29.98 in 6.2 mi ENE 13.8 mph - N/A   Overcast
6:00 AM 60.8 °F 59.0 °F 94% 29.95 in 6.2 mi East 12.7 mph - N/A   Mostly Cloudy
6:30 AM 60.8 °F 59.0 °F 94% 29.98 in 6.2 mi ENE 11.5 mph - N/A   Mostly Cloudy
7:00 AM 60.8 °F 59.0 °F 94% 29.98 in 6.2 mi ENE 8.1 mph - N/A   Mostly Cloudy
7:30 AM 60.8 °F 59.0 °F 94% 29.95 in 6.2 mi ENE 8.1 mph - N/A   Mostly Cloudy
8:00 AM 62.6 °F 60.8 °F 94% 29.95 in 6.2 mi ENE 10.4 mph - N/A   Mostly Cloudy
8:30 AM 64.4 °F 60.8 °F 88% 29.95 in 6.2 mi ENE 9.2 mph - N/A   Unknown
9:00 AM 66.2 °F 60.8 °F 83% 29.95 in 6.2 mi ENE 11.5 mph - N/A   Unknown
9:30 AM 68.0 °F 59.0 °F 73% 29.95 in 6.2 mi ENE 9.2 mph - N/A   Unknown
10:00 AM 69.8 °F 53.6 °F 56% 29.92 in 6.2 mi ENE 9.2 mph - N/A   Unknown
10:30 AM 71.6 °F 51.8 °F 50% 29.92 in 6.2 mi ENE 11.5 mph - N/A   Unknown
11:00 AM 75.2 °F 55.4 °F 50% 29.92 in 6.2 mi NE 10.4 mph - N/A   Unknown
11:30 AM 78.8 °F 51.8 °F 39% 29.89 in 6.2 mi NE 9.2 mph - N/A   Unknown
12:00 PM 80.6 °F 50.0 °F 34% 29.89 in 6.2 mi NNE 8.1 mph - N/A   Unknown
12:30 PM 82.4 °F 46.4 °F 28% 29.89 in 6.2 mi North 6.9 mph - N/A   Unknown
1:00 PM 80.6 °F 42.8 °F 26% 29.89 in 6.2 mi North 10.4 mph 23.0 mph N/A   Unknown
1:30 PM 78.8 °F 42.8 °F 28% 29.86 in 6.2 mi NNW 17.3 mph - N/A   Unknown
2:00 PM 78.8 °F 42.8 °F 28% 29.86 in 6.2 mi NNW 15.0 mph - N/A   Unknown
2:30 PM 80.6 °F 42.8 °F 26% 29.89 in 6.2 mi NW 9.2 mph - N/A   Unknown
3:00 PM 78.8 °F 42.8 °F 28% 29.89 in 6.2 mi NNW 11.5 mph - N/A   Unknown
3:30 PM 77.0 °F 42.8 °F 29% 29.86 in 6.2 mi NW 12.7 mph - N/A   Unknown
4:00 PM 77.0 °F 44.6 °F 32% 29.86 in 6.2 mi NW 11.5 mph - N/A   Unknown
4:30 PM 77.0 °F 46.4 °F 34% 29.86 in 6.2 mi NNW 8.1 mph - N/A   Unknown
5:00 PM 75.2 °F 44.6 °F 34% 29.83 in 6.2 mi North 13.8 mph - N/A   Unknown
5:30 PM 75.2 °F 46.4 °F 36% 29.83 in 6.2 mi North 6.9 mph - N/A   Unknown
6:00 PM 75.2 °F 48.2 °F 38% 29.83 in 6.2 mi NNE 8.1 mph - N/A   Unknown
6:30 PM 75.2 °F 48.2 °F 38% 29.83 in 6.2 mi NNE 8.1 mph - N/A   Unknown
7:00 PM 71.6 °F 50.0 °F 46% 29.83 in 6.2 mi NE 5.8 mph - N/A   Unknown
7:30 PM 69.8 °F 51.8 °F 53% 29.80 in 6.2 mi NE 6.9 mph - N/A   Unknown
8:00 PM 71.6 °F 48.2 °F 43% 29.80 in 6.2 mi NNE 8.1 mph - N/A   Unknown
8:30 PM 69.8 °F 50.0 °F 49% 29.80 in 6.2 mi North 3.5 mph - N/A   Unknown
9:00 PM 68.0 °F 50.0 °F 52% 29.80 in 6.2 mi North 4.6 mph - N/A   Unknown
9:30 PM 71.6 °F 48.2 °F 43% 29.83 in 6.2 mi North 8.1 mph - N/A   Unknown
10:00 PM 69.8 °F 50.0 °F 49% 29.83 in 6.2 mi NNW 9.2 mph - N/A   Partly Cloudy
10:30 PM 69.8 °F 48.2 °F 46% 29.83 in 6.2 mi NNW 10.4 mph - N/A   Drizzle
11:00 PM 71.6 °F 46.4 °F 41% 29.83 in 6.2 mi NNW 6.9 mph - N/A Rain Light Rain Showers
11:30 PM 68.0 °F 51.8 °F 56% 29.83 in 6.2 mi ENE 4.6 mph - N/A Rain Light Rain Showers